Regional Weather Roundup
Issued by NWS

Home | Current Version | Previous Version | Graphics & Text | Print | Product List | Glossary On
Versions: 1 2 3 4 5 6 7 8 9 10 11 12 13 14 15 16 17 18 19 20 21 22 23 24 25 26 27 28 29 30 31 32 33 34 35 36 37 38 39 40 41 42 43 44 45 46 47 48 49 50
842
ASUS44 KJAN 230903
RWRMS

MISSISSIPPI HOURLY WEATHER ROUNDUP
NATIONAL WEATHER SERVICE JACKSON MS
400 AM CDT SAT AUG 23 2014

NOTE: "FAIR: INDICATES FEW OR NO CLOUDS BELOW 12,000 FEET WITH NO
SIGNIFICANT WEATHER AND/OR OBSTRUCTIONS TO VISIBILITY.

MSZ001>002-007>008-010>013-018>021-025>028-034>036-231000-
NORTHWEST MISSISSIPPI

CITY           SKY/WX    TMP DP  RH WIND       PRES   REMARKS
CLARKSDALE     FAIR      75  73  94 CALM      30.00F
CLEVELAND      FAIR      73  73  98 SW5       29.99F
GREENWOOD      CLEAR     73  71  93 S3        30.01R
GREENVILLE     CLEAR     71  70  96 MISG      30.00S
GRENADA        FAIR      70  70 100 CALM      30.01S
OLIVE BRANCH   CLEAR     73  73 100 S6        30.00S
OXFORD         FAIR      72  70  94 CALM      30.03R
TUNICA           N/A     73  72  94 CALM      30.00S
$$

MSZ003>006-009-014>017-022>024-029>033-037>039-231000-
NORTHEAST MISSISSIPPI

CITY           SKY/WX    TMP DP  RH WIND       PRES   REMARKS
BELMONT        FAIR      72  71  99 CALM      30.01F
COLUMBUS AFB   CLEAR     72  72 100 SE1       30.01R
CORINTH        FAIR      73  72  94 CALM      30.00R
GOLDN TRIANGLE CLEAR     72  66  83 CALM      30.02S
STARKVILLE     FAIR      68  66  94 CALM      30.01S
TUPELO         CLEAR     75  71  87 CALM      30.00S
$$

MSZ040-058-231000-
CENTRAL MISSISSIPPI

CITY           SKY/WX    TMP DP  RH WIND       PRES   REMARKS
JACKSON INTL   CLEAR     73  72  96 CALM      30.02R
JACKSON HAWKNS CLEAR     77  71  82 CALM      30.02S
MERIDIAN KEY   CLEAR     72  70  93 CALM      30.01S
MERIDIAN NAS   CLEAR     74  72  93 NW3       30.01S
RAYMOND        FAIR      72  66  83 CALM      30.02R HAZE
VICKSBURG      CLEAR     71  69  93 CALM      30.01R
$$

MSZ059>079-231000-
SOUTH MISSISSIPPI

CITY           SKY/WX    TMP DP  RH WIND       PRES   REMARKS
BROOKHAVEN     FAIR      73  73 100 CALM      30.04S FOG
COLUMBIA       FAIR      73  73 100 MISG      30.00S FOG
HATTIESBURG    FOG       77  74  90 CALM      30.01S VSB 1/2
MCCOMB         CLEAR     76  72  87 CALM      30.02R
NATCHEZ        CLEAR     75  72  88 CALM      30.03R
PINE BELT      CLEAR     73  72  94 CALM      30.03R
$$

MSZ080>082-231000-
COASTAL MISSISSIPPI

CITY           SKY/WX    TMP DP  RH WIND       PRES   REMARKS
BILOXI         CLEAR     82  77  84 NW1       29.99S HX  91
PASCAGOULA     CLEAR     75  74  96 CALM      29.99R FOG
GULFPORT       CLEAR     79  76  90 CALM      29.98S
$$



USA.gov is the U.S. government's official web portal to all federal, state and local government web resources and services.